Temp
56 56 56 56 55 55 54 54 54 53 53 52 51 51 51 50 50 40 36 39 31 20 25 30 31 20 22 18 10 17 16 17 13 8 9 5 2 5 4 12 6 -2 -1 2 6 -2 -2 19 17 7 11 18 18 18
56 56 56 55 55 54 53 53 52 52 52 52 51 51 51 50 50 45 33 40 39 26 27 33 33 33 31 29 20 18 16 14 17 9 8 6 9 5 0 1 13 1 5 2 8 9 17 18 15 18 18 16 19 18
56 56 55 55 54 54 53 52 52 51 50 51 51 51 51 51 50 45 34 35 33 23 25 24 23 30 35 33 33 16 20 17 14 15 9 8 4 11 2 4 4 9 9 5 9 14 13 19 18 20 19 18 20 22
55 55 55 54 54 53 52 52 51 50 50 50 51 51 51 51 49 44 35 35 32 24 16 21 34 27 32 33 32 31 26 21 16 14 6 4 5 12 7 8 7 10 11 9 9 13 14 18 18 18 19 20 21 23
54 54 54 54 53 53 52 51 51 50 49 50 50 51 51 49 46 39 35 36 37 26 19 20 26 27 31 31 29 24 18 26 8 12 6 8 11 12 9 5 -3 7 7 5 6 11 9 11 17 19 18 18 20 22
54 54 54 53 53 52 51 50 50 49 48 49 49 50 48 46 45 37 29 36 38 29 19 15 24 20 25 25 20 16 20 23 18 13 9 7 -0 8 0 -2 6 4 8 9 8 13 13 16 17 20 17 18 22 22
54 54 53 53 52 52 51 50 49 48 48 48 49 48 47 46 38 33 31 35 39 29 20 12 16 22 21 20 20 24 26 23 22 13 13 10 9 10 7 1 4 2 5 11 13 9 10 15 13 17 19 22 23 22
54 53 53 52 52 51 50 49 48 48 47 48 47 45 45 45 41 33 35 40 37 27 24 10 14 17 22 16 13 27 22 21 20 13 12 8 10 5 -2 4 -3 -1 3 6 9 11 12 15 16 17 20 20 18 17
53 53 53 52 51 50 49 48 48 47 47 46 44 43 37 34 30 30 41 38 33 27 14 12 12 7 19 16 12 13 11 9 19 7 8 15 5 1 5 3 -3 0 2 3 8 9 10 10 13 14 15 16 16 15
52 52 52 51 50 49 48 47 47 46 45 43 37 31 25 30 41 39 31 23 20 21 19 12 16 10 12 13 11 7 14 9 4 11 16 6 1 1 -3 -2 -2 -1 -0 -1 3 4 7 10 11 13 15 16 17 16
51 52 51 50 48 48 47 47 45 44 42 34 29 24 29 37 31 26 14 16 13 11 16 13 8 8 14 8 7 12 3 6 -2 8 7 -1 1 1 -6 -3 -4 -4 -4 2 7 8 12 13 14 16 17 18 17 18
51 50 49 48 47 46 47 45 43 36 33 34 30 30 30 26 22 17 12 13 13 13 14 10 8 10 12 14 6 9 1 4 -4 10 2 -6 4 -3 -7 -3 -2 -3 -2 0 2 9 11 16 16 17 18 18 18 19
50 49 48 47 46 46 45 43 41 39 37 31 26 22 21 18 13 11 10 10 9 14 11 7 6 11 15 14 2 2 -1 -0 14 -1 -1 3 -2 -4 -3 -5 -1 -4 -4 0 4 7 11 14 18 19 19 19 20 20
48 47 46 46 45 44 42 41 41 39 32 24 21 15 17 12 15 18 17 14 11 12 12 10 10 9 14 5 8 0 8 8 -5 -6 -2 0 1 -1 -3 -4 3 2 2 5 8 13 16 20 19 22 22 21 21 20
47 46 46 44 44 42 41 41 39 31 29 22 23 17 14 16 13 13 13 12 14 16 14 12 11 12 7 3 6 5 -3 -6 4 2 5 5 2 2 4 6 9 10 10 11 13 16 19 21 20 20 21 21 20 20
46 44 41 43 42 41 39 38 31 28 24 20 18 15 17 15 11 13 12 13 16 16 16 15 3 -0 -3 2 1 -5 -3 -3 4 6 8 2 6 9 12 16 17 16 16 17 18 19 20 20 20 20 21 19 19 20
44 38 42 42 40 39 40 30 27 22 20 18 15 20 20 18 14 15 18 16 18 15 8 6 -2 0 5 -7 -4 5 2 7 10 9 11 16 15 14 15 18 20 19 18 17 18 19 19 22 21 20 18 19 19 20
38 40 41 39 35 35 25 25 23 21 15 14 16 16 19 19 17 17 16 19 17 14 13 6 10 -2 -3 -6 -0 5 6 6 12 14 17 16 16 16 19 17 19 19 18 18 17 18 18 18 19 19 20 20 19 19
37 37 39 41 36 27 23 19 21 15 13 16 17 18 18 17 19 18 18 19 20 20 12 5 -2 -4 3 5 4 4 6 12 13 14 15 14 14 15 18 19 19 17 16 15 15 16 17 18 18 18 20 20 19 20
41 41 40 39 34 23 18 16 20 16 13 15 18 15 14 15 16 16 17 19 18 11 2 -0 4 5 5 6 8 10 13 16 15 12 13 14 13 14 16 16 16 17 15 14 14 20 17 18 19 19 20 20 19 18
34 35 34 27 20 16 14 13 12 14 15 11 14 12 10 13 11 10 10 18 8 4 2 5 2 3 2 5 12 17 16 14 13 13 13 12 15 15 13 14 15 16 15 13 9 14 21 17 18 18 15 19 20 20
32 37 25 27 17 14 10 10 12 13 10 9 8 9 5 3 3 3 11 3 3 5 5 3 3 7 8 7 10 14 15 16 16 15 21 19 13 11 12 16 15 15 14 14 13 14 15 17 18 17 16 17 20 19
36 31 24 23 17 15 7 11 10 7 7 6 3 2 0 1 1 6 -1 4 5 6 5 7 5 6 8 9 14 14 15 14 12 12 13 13 15 16 17 17 18 15 14 15 15 14 14 20 19 17 15 17 17 16
30 18 17 14 14 7 10 7 10 7 3 2 1 0 -0 -1 -1 -6 -3 1 5 6 7 8 5 5 6 5 6 8 12 13 9 8 10 12 12 12 17 17 17 17 17 15 14 13 14 16 19 16 14 12 15 15
23 15 13 6 10 11 8 6 4 4 1 -2 -2 -4 -3 -3 -6 -9 -3 1 0 2 8 8 7 7 3 -1 6 9 14 12 9 8 9 12 11 12 13 16 16 16 16 12 11 13 12 14 14 13 12 12 13 14
12 9 11 10 10 12 10 7 6 3 -0 -5 -3 -5 -7 -5 -9 -2 -0 1 1 3 4 6 5 3 6 10 6 6 9 10 9 8 9 12 15 13 12 11 10 12 15 14 10 10 11 13 13 13 12 13 19 14
8 6 10 15 13 11 8 7 8 4 -2 1 -2 -5 -6 -6 -7 3 5 5 6 6 5 7 10 9 8 7 9 9 9 7 9 8 10 13 15 16 16 12 12 14 15 14 13 11 11 12 13 13 13 13 14 14
11 11 10 7 6 5 4 2 1 2 3 4 3 -6 -2 0 5 7 8 4 0 -3 -2 -2 1 4 2 2 3 2 1 2 6 8 9 10 12 13 14 14 13 22 11 11 12 12 12 13 13 14 14 13 12 13
8 9 10 -1 -2 -1 -0 2 4 3 6 6 2 0 0 6 3 3 6 2 -5 -4 -2 -3 0 -7 -5 -4 0 1 0 6 6 2 0 5 8 12 14 13 11 9 11 10 21 15 10 11 13 14 13 13 12 11
2 4 1 -6 -1 1 -2 -3 -4 -5 0 -0 -0 -0 2 2 3 1 0 -4 -3 -2 -4 -7 -8 -6 -4 -3 -2 -1 1 6 10 11 7 6 12 14 13 12 11 10 10 9 10 12 22 19 18 12 8 8 8 8
-1 -4 -4 -5 -6 -7 -9 -10 -11 -5 -10 -13 -13 -8 -5 -5 0 0 -1 -4 -6 -12 -8 -8 -9 -13 -8 -6 -3 -4 1 2 9 11 12 11 10 13 13 13 13 13 13 12 11 10 14 10 9 7 5 5 5 8
-3 -9 -5 -6 -8 -13 -15 -15 -17 -14 -16 -14 -13 -17 -12 -9 -7 0 -5 -7 -10 -8 -0 -6 -11 -4 -5 -3 -6 -3 15 5 2 9 11 14 14 15 15 15 14 13 13 13 14 13 11 9 8 8 7 6 5 5
-16 -17 -17 -13 -13 -12 -13 -13 -15 -15 -16 -16 -13 -12 -13 -8 -4 1 -4 -6 -3 -3 -4 -4 -5 -9 -8 -8 -7 -5 7 2 7 20 22 22 22 18 14 15 14 14 13 13 13 12 10 9 7 6 7 8 7 6
MSLP
1016.73 1017.66 1018.69 1019.63 1020.71 1021.79 1022.59 1023.42 1023.99 1025.02 1025.85 1026.57 1027.08 1027.46 1027.78 1028.18 1028.47 1029.06 1029.86 1029.69 1029.98 1031.11 1031.65 1031.54 1031.79 1032.39 1032.76 1033.26 1034.05 1034.07 1034.49 1034.49 1034.80 1035.40 1035.97 1036.44 1036.07 1035.49 1035.14 1034.34 1034.33 1034.89 1034.83 1034.11 1033.00 1032.20 1031.17 1030.50 1029.87 1030.65 1031.64 1030.21 1029.49 1028.37
1015.96 1016.84 1017.77 1018.90 1019.89 1021.02 1021.98 1022.98 1023.53 1024.50 1025.41 1026.27 1026.94 1027.34 1027.61 1028.03 1028.43 1028.86 1030.02 1029.89 1030.00 1030.92 1031.81 1031.74 1031.89 1031.92 1032.06 1032.45 1033.32 1034.10 1034.76 1035.34 1035.50 1036.18 1036.75 1037.06 1036.85 1036.03 1036.09 1035.69 1035.02 1035.53 1035.32 1035.04 1034.37 1032.56 1031.50 1031.42 1031.47 1031.54 1031.38 1030.73 1029.41 1028.49
1015.00 1015.95 1016.93 1017.97 1019.04 1020.14 1021.24 1022.27 1023.04 1023.95 1025.07 1025.98 1026.67 1027.18 1027.50 1027.85 1028.29 1028.85 1029.95 1030.29 1030.59 1031.62 1032.34 1032.29 1032.17 1032.07 1032.05 1032.18 1032.53 1033.84 1034.62 1034.86 1035.67 1035.83 1036.93 1037.48 1037.87 1036.67 1036.81 1036.18 1035.91 1035.43 1035.21 1035.12 1034.48 1032.54 1032.13 1031.33 1031.41 1031.13 1031.03 1030.61 1029.61 1028.56
1013.89 1014.96 1015.99 1017.01 1018.13 1019.24 1020.27 1021.59 1022.55 1023.58 1024.72 1025.63 1026.35 1026.86 1027.32 1027.69 1028.16 1028.80 1029.84 1030.36 1030.88 1031.94 1032.82 1032.95 1032.42 1032.33 1032.16 1032.25 1032.61 1033.10 1033.92 1034.83 1035.52 1036.26 1037.28 1038.08 1037.91 1036.67 1036.81 1036.64 1036.64 1035.81 1035.65 1035.09 1034.30 1032.99 1032.33 1031.50 1031.47 1031.44 1030.80 1030.24 1029.38 1028.43
1012.80 1013.86 1014.84 1015.93 1017.12 1018.31 1019.50 1020.72 1022.16 1023.19 1024.36 1025.24 1026.14 1026.64 1027.15 1027.80 1028.51 1029.10 1029.86 1030.24 1030.44 1031.66 1032.77 1033.03 1032.74 1032.76 1032.65 1032.74 1033.29 1033.66 1034.41 1035.14 1035.98 1036.79 1037.72 1037.94 1037.39 1037.19 1037.25 1037.58 1037.40 1035.96 1035.62 1035.52 1034.54 1034.09 1033.81 1032.97 1032.22 1031.69 1031.07 1030.33 1029.36 1028.35
1011.76 1012.78 1013.74 1014.92 1016.09 1017.20 1018.65 1020.01 1021.54 1023.04 1024.31 1025.09 1025.97 1026.56 1027.42 1028.13 1028.69 1029.15 1030.33 1030.56 1030.35 1031.30 1032.25 1033.42 1033.22 1033.07 1033.35 1033.53 1034.13 1034.67 1034.87 1035.32 1035.77 1036.66 1037.49 1037.36 1037.40 1037.85 1038.55 1038.34 1036.51 1035.89 1035.40 1035.19 1034.91 1034.39 1033.84 1033.09 1032.53 1031.94 1031.48 1030.59 1029.63 1028.85
1010.88 1011.94 1012.96 1014.05 1015.18 1016.60 1018.08 1019.61 1021.27 1022.63 1024.21 1025.10 1025.76 1026.80 1027.69 1028.39 1029.11 1029.65 1030.01 1030.28 1030.41 1031.08 1032.25 1033.54 1033.65 1033.80 1033.90 1034.28 1034.66 1034.94 1034.91 1035.11 1035.58 1036.27 1037.12 1037.38 1037.62 1037.80 1038.39 1038.36 1037.09 1036.69 1035.95 1035.45 1035.13 1034.72 1033.92 1033.26 1032.89 1032.08 1031.41 1030.53 1029.74 1029.13
1009.81 1010.92 1012.11 1013.33 1014.75 1016.05 1017.51 1018.98 1020.91 1022.47 1024.35 1025.12 1026.17 1027.34 1028.22 1028.86 1029.51 1030.20 1030.74 1030.44 1030.60 1031.47 1032.43 1033.91 1034.35 1034.43 1034.20 1034.71 1035.17 1034.73 1035.26 1035.23 1035.51 1036.10 1036.73 1037.43 1037.90 1038.26 1038.62 1037.30 1037.10 1037.15 1036.57 1036.08 1035.62 1035.13 1034.52 1033.68 1032.84 1031.96 1031.21 1030.57 1029.99 1029.37
1008.83 1009.96 1011.05 1012.22 1013.73 1015.45 1017.30 1018.82 1020.58 1022.66 1023.90 1025.37 1026.81 1027.91 1029.05 1029.76 1030.23 1030.76 1030.73 1030.91 1031.18 1031.98 1033.02 1034.07 1034.61 1034.97 1034.74 1034.98 1035.30 1035.90 1035.60 1035.93 1035.84 1036.35 1036.76 1037.43 1037.95 1038.16 1037.12 1037.32 1037.39 1037.54 1037.23 1036.70 1035.97 1035.25 1034.42 1033.71 1032.86 1032.05 1031.26 1030.65 1030.37 1029.88
1008.04 1008.98 1010.14 1011.59 1013.35 1015.21 1017.10 1018.87 1020.86 1022.59 1024.21 1025.63 1027.31 1028.80 1030.00 1030.33 1030.27 1030.75 1031.31 1031.53 1032.23 1032.77 1033.26 1034.25 1034.87 1035.42 1035.57 1035.63 1036.24 1036.62 1036.08 1036.16 1036.45 1036.63 1036.83 1037.73 1037.62 1036.86 1037.01 1036.87 1037.02 1037.21 1037.24 1036.89 1036.41 1035.38 1034.43 1033.45 1032.77 1032.12 1031.53 1030.99 1030.51 1030.03
1007.53 1008.29 1009.28 1010.89 1012.86 1014.93 1016.79 1018.82 1020.80 1022.80 1024.45 1026.06 1027.93 1029.66 1030.63 1030.53 1030.91 1031.35 1032.16 1032.74 1033.37 1033.87 1034.06 1034.92 1035.36 1035.66 1035.86 1036.30 1036.74 1036.66 1036.87 1036.91 1037.41 1037.11 1037.56 1038.04 1038.20 1037.39 1037.06 1037.34 1037.13 1036.93 1036.80 1036.42 1035.91 1035.05 1034.24 1033.49 1032.72 1032.07 1031.43 1030.98 1030.46 1030.04
1007.05 1007.84 1009.32 1010.90 1012.98 1014.75 1016.75 1018.77 1020.55 1022.16 1024.31 1026.02 1027.93 1029.80 1030.79 1031.11 1031.59 1032.25 1032.99 1033.59 1033.81 1033.78 1034.54 1035.31 1035.89 1035.86 1036.13 1036.34 1036.99 1037.05 1037.37 1037.92 1037.81 1037.39 1038.39 1038.67 1037.16 1037.49 1037.48 1037.50 1037.36 1036.78 1036.56 1035.99 1035.33 1034.60 1033.68 1032.92 1032.26 1031.81 1031.38 1030.92 1030.46 1029.99
1006.75 1007.94 1009.61 1011.40 1013.26 1015.00 1016.99 1019.46 1020.91 1022.60 1024.32 1026.76 1028.45 1030.09 1030.65 1031.81 1032.13 1032.50 1032.90 1033.38 1033.73 1033.82 1034.66 1035.32 1035.94 1036.00 1036.13 1036.75 1037.67 1037.82 1038.28 1038.24 1037.52 1037.95 1038.03 1037.32 1036.83 1037.27 1037.12 1037.27 1037.06 1036.36 1036.06 1035.39 1034.69 1034.06 1033.30 1032.55 1031.83 1031.55 1031.21 1030.85 1030.53 1030.16
1007.08 1008.60 1010.27 1012.15 1014.05 1015.76 1017.57 1019.77 1021.17 1022.66 1024.51 1027.12 1028.40 1030.00 1030.47 1031.38 1031.22 1031.19 1031.62 1032.16 1033.05 1033.43 1034.22 1034.68 1035.63 1036.11 1036.28 1037.04 1037.68 1038.52 1038.19 1038.03 1038.23 1038.21 1037.39 1036.34 1035.90 1036.21 1036.46 1036.26 1036.42 1035.93 1035.28 1034.63 1033.97 1033.44 1032.88 1032.30 1031.79 1031.47 1031.27 1031.03 1030.72 1030.46
1008.74 1010.25 1011.62 1013.54 1015.17 1016.86 1018.71 1020.39 1021.68 1023.20 1025.33 1026.97 1027.69 1028.87 1030.02 1030.55 1031.18 1031.74 1032.07 1032.52 1032.95 1033.69 1034.36 1035.09 1035.91 1036.42 1037.09 1037.53 1037.83 1038.33 1038.51 1038.17 1037.41 1036.38 1035.30 1034.50 1034.63 1034.92 1035.17 1035.13 1035.24 1034.88 1034.37 1033.83 1033.21 1032.81 1032.45 1032.06 1031.69 1031.45 1031.31 1031.18 1030.99 1030.71
1010.58 1012.41 1013.47 1014.94 1016.29 1017.93 1019.65 1021.25 1022.92 1024.53 1026.48 1027.24 1028.10 1028.86 1029.74 1030.40 1031.68 1032.14 1032.59 1033.09 1033.23 1033.98 1034.38 1034.98 1036.44 1037.40 1037.63 1037.81 1038.14 1038.20 1037.97 1036.44 1034.77 1033.98 1033.42 1033.36 1033.72 1033.87 1033.71 1033.58 1033.70 1033.66 1033.42 1033.09 1032.62 1032.24 1032.02 1031.88 1031.66 1031.46 1031.41 1031.33 1031.16 1030.92
1011.83 1013.65 1015.00 1016.03 1017.54 1019.14 1020.42 1022.18 1024.02 1026.31 1027.26 1028.07 1028.45 1028.45 1029.17 1029.21 1029.85 1031.73 1032.22 1032.90 1033.24 1033.82 1034.75 1035.52 1036.99 1037.22 1037.72 1038.09 1037.82 1036.86 1035.48 1033.58 1032.73 1032.37 1032.16 1032.32 1032.64 1032.76 1032.54 1032.58 1032.70 1032.72 1032.69 1032.50 1032.26 1031.96 1031.89 1031.79 1031.65 1031.48 1031.49 1031.40 1031.26 1031.07
1012.54 1014.59 1015.85 1016.86 1018.18 1020.04 1022.67 1024.15 1025.58 1026.66 1027.90 1028.55 1028.85 1029.07 1029.27 1029.50 1030.07 1031.09 1032.19 1032.76 1033.17 1033.47 1034.31 1035.18 1035.89 1037.42 1037.38 1036.97 1035.58 1034.19 1033.12 1032.51 1031.66 1031.50 1031.42 1031.51 1031.82 1031.92 1031.91 1031.96 1032.00 1032.02 1032.12 1032.07 1032.00 1031.92 1031.84 1031.83 1031.68 1031.53 1031.47 1031.35 1031.26 1031.16
1013.51 1015.21 1016.58 1017.27 1018.14 1020.62 1024.01 1026.00 1026.45 1027.68 1028.95 1029.09 1029.19 1029.41 1030.01 1030.67 1031.03 1031.21 1031.89 1032.68 1032.93 1033.11 1034.11 1035.24 1036.27 1036.59 1035.54 1034.14 1033.00 1032.52 1032.22 1031.80 1031.54 1031.27 1031.16 1031.07 1031.30 1031.44 1031.57 1031.56 1031.60 1031.74 1031.85 1031.89 1031.90 1031.89 1031.79 1031.79 1031.76 1031.66 1031.51 1031.36 1031.25 1031.12
1014.70 1016.07 1017.19 1018.15 1018.82 1022.01 1025.37 1027.12 1027.26 1028.00 1029.06 1029.30 1029.94 1030.74 1031.21 1031.57 1031.86 1032.10 1032.61 1033.13 1033.48 1034.11 1034.77 1035.26 1034.56 1033.74 1033.04 1032.07 1031.74 1031.67 1031.26 1030.94 1031.13 1031.09 1030.97 1030.82 1031.01 1031.24 1031.31 1031.37 1031.43 1031.49 1031.67 1031.73 1031.73 1031.58 1031.72 1031.70 1031.67 1031.62 1031.48 1031.24 1031.17 1031.17
1016.62 1017.99 1018.36 1019.02 1021.67 1023.54 1026.23 1027.86 1028.61 1029.28 1029.76 1030.46 1031.04 1031.34 1032.24 1032.44 1032.86 1033.39 1033.72 1033.67 1034.36 1034.45 1033.89 1033.13 1032.79 1031.91 1031.29 1031.09 1031.13 1030.98 1030.79 1030.58 1030.76 1030.52 1030.35 1030.42 1030.55 1030.85 1031.10 1031.06 1031.12 1031.31 1031.45 1031.61 1031.64 1031.53 1031.15 1031.43 1031.43 1031.47 1031.44 1031.32 1031.26 1031.25
1017.59 1017.96 1019.50 1020.71 1023.19 1025.46 1027.40 1028.74 1029.18 1030.04 1030.78 1031.51 1031.84 1031.93 1032.92 1033.67 1034.19 1034.25 1034.11 1034.49 1034.24 1032.64 1032.36 1031.98 1031.77 1031.57 1031.45 1031.34 1030.95 1030.84 1030.57 1030.51 1030.35 1029.99 1029.71 1029.97 1030.46 1030.74 1030.83 1030.82 1030.99 1031.01 1031.14 1031.26 1031.36 1031.34 1031.21 1031.27 1031.36 1031.39 1031.43 1031.42 1031.35 1031.36
1017.48 1018.52 1020.59 1022.04 1024.31 1026.21 1029.23 1029.37 1029.58 1030.50 1031.41 1032.44 1032.79 1033.40 1034.12 1034.54 1034.73 1034.68 1034.70 1034.06 1032.76 1031.48 1031.20 1031.33 1031.38 1031.32 1031.47 1031.08 1030.69 1030.67 1030.51 1030.52 1030.19 1029.98 1030.00 1030.13 1030.15 1030.21 1030.32 1030.41 1030.47 1030.60 1030.79 1030.87 1030.93 1031.01 1031.04 1030.96 1031.07 1031.19 1031.42 1031.34 1031.50 1031.53
1018.25 1020.72 1022.88 1023.98 1025.09 1027.77 1028.84 1029.27 1029.71 1030.69 1031.76 1032.69 1033.49 1034.34 1035.09 1035.15 1035.16 1035.33 1034.76 1033.33 1031.71 1031.15 1031.21 1031.17 1031.35 1031.68 1031.47 1031.22 1030.91 1030.52 1030.37 1030.08 1030.12 1030.10 1029.89 1030.03 1030.02 1030.04 1029.99 1030.02 1030.08 1030.19 1030.33 1030.53 1030.75 1030.89 1030.94 1030.92 1030.94 1031.05 1031.30 1031.38 1031.50 1031.66
1019.83 1023.72 1024.53 1025.77 1026.40 1027.07 1028.04 1029.07 1030.00 1030.92 1032.00 1032.96 1033.86 1034.76 1035.26 1035.44 1035.38 1035.15 1034.01 1032.39 1031.55 1031.01 1030.84 1030.87 1031.20 1031.22 1031.18 1031.06 1030.69 1030.35 1029.77 1029.79 1029.98 1030.07 1029.71 1029.63 1029.68 1029.75 1029.82 1029.81 1029.86 1029.95 1030.09 1030.40 1030.65 1030.80 1030.90 1030.96 1031.06 1031.17 1031.26 1031.39 1031.52 1031.75
1022.27 1024.81 1025.31 1025.50 1026.32 1026.52 1027.61 1028.79 1029.55 1030.49 1031.74 1032.80 1033.73 1034.77 1035.07 1035.12 1034.93 1033.78 1032.18 1030.81 1030.68 1030.59 1030.61 1030.48 1030.43 1030.65 1030.78 1030.68 1030.48 1030.13 1029.79 1029.43 1029.61 1029.78 1029.47 1029.28 1029.27 1029.36 1029.45 1029.64 1029.78 1029.86 1029.81 1029.96 1030.33 1030.55 1030.68 1030.77 1030.95 1031.12 1031.18 1031.21 1031.25 1031.68
1023.81 1025.22 1025.58 1025.81 1026.14 1026.68 1027.81 1028.58 1029.31 1030.22 1031.32 1032.21 1033.18 1034.19 1034.40 1034.03 1032.76 1031.06 1029.71 1029.57 1030.08 1029.72 1029.27 1029.27 1029.66 1030.07 1030.03 1029.94 1029.74 1029.56 1029.15 1029.14 1029.28 1029.28 1028.98 1028.75 1028.76 1028.80 1028.95 1029.14 1029.19 1029.15 1029.19 1029.46 1029.74 1029.98 1030.22 1030.42 1030.59 1030.80 1030.92 1031.06 1031.21 1031.47
1024.45 1025.10 1025.86 1026.76 1027.05 1027.71 1028.75 1029.47 1029.96 1030.25 1030.81 1031.37 1031.73 1032.46 1032.29 1031.63 1030.15 1029.09 1029.02 1028.95 1029.10 1029.33 1029.53 1029.80 1029.57 1029.59 1029.52 1029.46 1029.49 1029.50 1029.52 1029.18 1029.16 1029.11 1029.01 1028.91 1028.75 1028.68 1028.66 1028.68 1028.82 1028.17 1029.21 1029.26 1029.18 1029.42 1029.71 1029.95 1030.20 1030.48 1030.73 1030.96 1031.25 1031.56
1025.52 1026.10 1026.62 1028.17 1028.79 1029.21 1029.56 1029.94 1030.19 1030.52 1030.40 1030.44 1030.82 1031.18 1030.66 1029.73 1028.81 1028.53 1028.64 1028.93 1029.27 1029.92 1030.45 1030.15 1029.79 1029.68 1029.66 1029.31 1029.10 1029.06 1029.08 1029.33 1029.47 1029.46 1029.21 1029.01 1028.74 1028.45 1028.31 1028.39 1028.46 1028.71 1028.93 1028.85 1028.42 1029.10 1029.38 1029.55 1029.82 1030.12 1030.60 1030.95 1031.30 1031.74
1027.61 1027.89 1028.44 1029.34 1030.10 1030.69 1031.02 1031.05 1031.25 1031.39 1031.05 1031.07 1031.22 1030.98 1030.46 1029.42 1028.46 1028.12 1028.67 1029.29 1029.87 1029.86 1029.83 1029.78 1029.75 1029.87 1030.10 1029.97 1029.45 1029.10 1028.81 1028.71 1028.74 1028.82 1028.81 1028.62 1028.16 1027.72 1027.81 1028.01 1028.23 1028.45 1028.67 1028.77 1028.74 1028.73 1028.62 1029.04 1029.42 1030.09 1030.86 1031.32 1031.66 1031.98
1028.65 1028.88 1029.57 1030.41 1031.17 1031.88 1032.35 1032.57 1032.51 1032.40 1032.42 1032.41 1032.34 1032.18 1031.78 1030.86 1029.10 1028.13 1028.42 1028.71 1028.98 1029.25 1029.64 1029.92 1030.05 1029.71 1029.78 1029.74 1029.39 1028.90 1028.83 1028.18 1028.01 1027.98 1027.95 1027.83 1027.71 1027.63 1027.66 1027.77 1027.94 1028.23 1028.46 1028.63 1028.78 1028.94 1028.98 1029.58 1030.00 1030.55 1031.05 1031.42 1031.72 1031.98
1029.96 1030.68 1031.23 1032.31 1032.80 1033.17 1033.32 1033.25 1033.45 1033.17 1033.46 1033.41 1033.39 1033.05 1032.50 1032.01 1030.85 1028.55 1028.01 1028.58 1029.08 1029.45 1029.15 1029.27 1030.05 1029.53 1028.96 1028.56 1028.33 1028.12 1027.84 1027.63 1027.36 1027.30 1027.22 1027.22 1027.19 1027.20 1027.25 1027.46 1027.66 1027.93 1028.19 1028.44 1028.64 1028.91 1029.26 1029.69 1030.13 1030.51 1030.89 1031.26 1031.58 1031.88
1031.75 1031.82 1032.02 1032.52 1033.05 1033.47 1033.60 1033.75 1034.01 1034.03 1033.68 1033.66 1033.27 1032.98 1032.87 1032.26 1030.89 1028.67 1027.80 1027.95 1027.97 1028.31 1028.40 1028.67 1028.60 1028.59 1028.64 1028.49 1028.41 1028.25 1028.06 1027.51 1027.15 1026.14 1025.83 1025.85 1025.99 1026.42 1026.90 1027.06 1027.29 1027.52 1027.78 1028.05 1028.34 1028.66 1029.10 1029.54 1029.91 1030.24 1030.59 1030.94 1031.27 1031.57
Wind_Speed
30 30 29 28 28 27 26 24 23 21 18 15 13 12 10 9 8 4 0 3 4 3 1 2 2 3 2 2 4 5 5 5 4 5 3 3 1 4 2 4 2 2 2 4 4 4 5 13 4 7 6 13 16 18
30 30 30 29 29 28 28 26 24 23 20 17 15 13 11 10 8 5 2 2 2 5 4 1 3 3 3 4 5 3 6 3 3 3 1 1 3 2 3 3 3 4 6 4 5 5 2 4 2 1 4 12 15 17
31 31 31 31 30 30 29 28 26 25 23 18 16 14 12 10 11 6 3 2 4 3 3 4 1 1 4 2 3 5 2 3 2 5 4 3 2 2 2 5 1 4 4 2 3 1 6 10 3 10 11 12 17 16
32 31 31 31 31 31 31 30 28 28 24 21 18 15 13 10 13 7 3 1 4 3 4 4 1 3 1 1 2 2 4 4 4 4 2 3 2 2 3 3 4 6 4 3 6 5 9 1 11 12 17 15 17 17
32 32 32 33 32 33 33 31 28 29 25 22 19 17 14 16 14 8 3 2 3 5 4 2 2 1 4 3 5 5 5 3 2 2 2 3 2 2 2 2 3 4 6 3 5 1 4 7 10 14 12 15 17 16
32 32 32 33 34 34 33 32 30 29 25 23 20 18 20 18 15 3 2 2 2 3 5 1 2 2 4 6 5 5 2 1 2 3 4 2 3 4 1 3 6 4 1 5 4 4 6 11 10 5 13 16 13 14
30 30 30 31 33 33 33 33 31 30 26 23 21 23 19 14 4 3 1 3 4 3 4 3 2 1 2 3 1 1 1 1 1 2 1 2 2 3 1 3 5 5 3 4 4 4 5 3 7 14 12 13 14 11
31 31 30 30 32 33 35 36 32 30 27 23 25 23 18 18 10 4 3 4 3 4 3 3 2 2 1 0 1 1 2 1 2 2 2 2 1 2 3 7 5 5 5 5 2 2 7 10 9 8 8 8 10 10
30 31 31 33 35 36 36 36 34 32 29 31 28 21 7 3 2 2 7 7 3 3 3 3 4 4 3 1 1 4 2 2 1 1 2 2 2 5 8 7 5 5 5 5 6 7 6 4 8 8 7 8 7 8
29 31 31 34 37 39 39 37 35 34 35 32 7 3 3 1 13 8 3 3 4 3 3 2 1 1 3 1 2 3 0 2 0 3 1 1 5 5 6 5 4 5 6 2 3 6 5 6 7 7 7 7 7 7
22 27 33 39 42 42 42 38 40 39 24 3 3 3 1 6 2 1 1 2 1 2 1 1 3 3 2 3 2 1 2 1 3 4 3 4 5 6 4 3 4 4 4 6 5 6 6 7 6 6 8 7 7 7
21 30 38 43 44 45 42 42 41 10 4 10 10 7 2 2 2 3 1 1 2 4 2 4 2 3 1 2 4 3 3 4 4 1 4 4 6 5 3 4 4 3 4 5 3 7 7 6 5 5 5 6 6 6
31 41 43 44 45 45 44 38 29 39 24 5 5 4 3 1 2 6 6 3 2 4 4 2 1 3 2 2 2 4 4 4 1 3 5 7 4 5 6 3 4 3 4 3 5 4 6 5 4 3 5 5 6 6
39 43 44 44 44 43 38 42 37 17 7 4 5 6 5 4 5 4 3 3 2 3 5 3 3 4 2 3 2 3 4 3 4 1 7 4 5 5 5 3 1 4 5 5 5 5 5 3 3 3 4 5 5 5
39 42 43 43 42 40 40 34 20 5 4 4 4 4 5 3 3 2 2 3 2 3 3 3 4 3 1 3 1 3 5 3 6 7 5 4 5 5 4 3 6 5 5 4 3 2 4 3 3 3 4 4 4 4
38 39 29 41 41 39 33 22 7 4 3 3 3 5 3 3 2 1 2 3 1 3 2 3 3 4 2 4 3 6 6 7 6 4 4 2 3 5 5 5 6 5 4 4 3 2 2 3 3 2 2 3 4 4
26 9 37 40 39 35 27 7 5 5 4 3 2 2 2 2 6 3 3 4 3 2 3 4 5 7 2 3 3 5 7 5 4 3 3 4 5 6 6 5 5 5 5 4 2 2 2 3 3 1 1 2 3 3
18 27 40 40 26 19 5 6 4 4 4 1 3 3 2 3 5 4 3 5 4 2 3 5 4 3 6 6 5 6 4 3 2 3 3 3 4 4 4 5 5 5 4 4 2 2 1 3 2 1 2 3 1 2
26 26 39 32 11 8 5 3 3 4 2 1 2 3 3 4 3 4 4 3 1 3 5 3 3 5 6 5 5 3 3 3 3 3 3 4 5 5 5 5 4 4 4 3 3 3 2 2 1 1 2 1 0 1
40 37 28 18 9 6 6 3 1 4 3 3 3 3 3 3 2 3 4 2 2 2 2 4 7 5 5 4 4 3 3 2 3 1 3 3 4 5 5 4 4 4 4 3 3 5 2 2 2 1 2 2 1 0
21 15 13 8 5 7 6 2 4 2 3 3 2 2 2 2 3 2 2 1 2 4 4 5 5 4 3 2 2 2 3 3 4 5 3 2 3 4 3 3 4 3 3 3 3 3 5 3 2 1 0 0 0 1
7 11 5 4 6 5 6 3 4 2 3 1 2 2 4 3 2 2 0 2 5 5 5 4 3 2 1 3 4 4 4 4 5 3 6 5 2 1 2 3 3 4 3 4 3 3 2 2 2 2 2 1 1 1
14 5 5 4 6 5 2 0 4 2 5 3 2 3 1 2 1 1 1 4 5 4 3 3 3 2 3 3 3 4 4 5 4 3 3 3 3 3 3 4 4 4 4 4 2 3 3 5 4 3 2 2 1 0
10 7 5 3 5 4 2 2 2 4 3 2 3 3 2 2 1 3 4 4 4 2 2 3 2 1 2 2 2 3 4 3 2 2 3 3 3 3 3 3 3 3 4 2 3 2 2 2 4 2 3 2 2 2
8 4 4 4 1 5 4 4 3 3 3 2 4 1 2 1 2 1 4 5 3 3 3 3 3 4 3 2 2 4 4 3 4 4 3 4 2 1 1 2 2 3 2 3 3 3 3 2 3 3 3 3 4 4
6 2 2 3 2 3 5 5 6 5 4 3 1 2 1 3 2 6 5 4 4 4 4 5 5 2 3 5 3 2 4 3 3 2 3 4 4 4 4 4 3 3 4 4 4 4 5 4 4 5 4 5 9 6
5 2 2 2 2 4 4 3 3 4 4 6 5 5 3 3 6 6 3 3 4 4 4 3 4 5 5 3 3 3 3 3 4 4 2 2 2 4 5 4 5 4 4 7 6 5 6 6 5 5 4 3 2 5
3 2 5 2 3 2 5 3 5 6 5 4 5 5 9 10 6 4 4 3 3 2 2 2 3 3 3 3 3 2 1 2 3 2 2 2 2 2 2 2 3 6 3 4 5 4 5 5 5 5 5 5 3 3
3 2 3 4 2 2 3 4 5 3 1 5 5 4 5 4 3 2 2 2 2 3 1 2 4 1 2 2 1 2 3 4 5 3 4 4 2 3 5 3 3 1 3 2 9 9 7 5 5 5 5 4 4 4
1 1 4 2 4 3 2 1 1 2 2 1 1 2 3 3 4 1 3 2 3 4 4 3 2 3 3 4 3 3 2 4 5 6 5 4 4 2 3 4 4 3 3 3 2 2 10 6 5 3 4 3 4 4
1 2 4 3 2 1 1 2 2 1 2 2 2 2 3 5 5 3 4 3 3 3 2 2 3 3 3 3 4 2 4 4 8 8 7 3 2 2 3 3 4 4 4 4 4 3 3 4 5 5 5 5 6 7
3 2 4 3 2 3 1 2 1 2 4 3 3 2 4 3 5 4 2 4 3 2 6 4 3 4 5 3 2 3 9 3 3 5 8 6 4 4 4 4 4 5 5 6 5 5 6 7 5 6 6 7 6 6
2 2 2 3 3 3 3 4 4 3 2 1 3 3 3 3 7 4 2 3 4 4 4 4 4 3 4 4 4 4 6 2 7 10 11 11 12 10 5 4 5 6 8 7 6 6 7 7 6 6 6 6 7 6
Wind_Direction
184 183 183 182 180 180 178 178 172 176 176 176 172 162 157 152 135 84 52 27 113 114 292 101 118 107 57 99 132 262 37 349 19 43 60 284 96 257 44 262 274 174 34 321 336 347 332 3 5 67 255 305 320 324
187 185 183 183 181 181 178 177 172 174 174 177 175 169 163 157 158 118 88 340 65 91 186 73 87 103 133 160 141 350 175 182 196 80 8 23 308 4 168 283 17 353 171 212 179 246 8 339 135 276 317 321 323 325
189 187 185 183 182 181 178 175 172 171 169 175 178 173 166 167 169 115 123 146 56 76 3 52 318 92 59 87 142 117 320 176 19 172 169 227 272 121 284 260 343 301 183 212 12 263 328 317 326 353 347 324 321 321
188 188 186 185 183 180 176 173 172 170 167 176 174 174 167 169 140 116 112 158 91 108 111 273 82 75 12 23 107 123 148 37 111 86 138 160 185 136 245 227 179 209 139 228 257 311 322 151 358 333 327 326 326 324
190 189 187 185 183 179 175 171 170 165 168 170 171 174 162 131 115 90 86 74 111 127 172 205 73 3 32 114 95 61 90 162 99 39 79 241 234 45 329 43 277 187 203 151 249 146 205 275 311 316 324 326 321 326
191 191 189 185 183 178 172 166 163 161 165 162 178 156 136 134 128 96 74 335 55 114 96 124 240 67 33 60 79 63 110 193 96 143 232 291 262 102 89 240 260 258 179 151 257 324 275 282 292 300 319 313 319 333
191 192 189 186 181 172 165 160 158 154 162 167 159 136 134 129 71 77 119 146 130 86 89 35 323 316 136 103 80 156 118 202 177 240 235 156 289 118 210 238 263 252 264 298 316 341 325 319 304 308 307 315 323 319
189 189 188 182 175 166 161 153 152 148 158 157 130 123 117 109 102 56 0 65 79 87 72 113 270 37 152 298 338 191 218 167 192 207 3 144 308 79 261 246 266 264 301 308 287 281 250 284 295 300 314 324 333 331
190 188 184 176 169 160 153 146 142 151 147 129 122 104 70 45 110 157 115 75 52 116 151 112 147 216 356 278 132 0 112 29 245 151 254 113 270 236 227 219 213 223 195 243 304 298 300 293 302 309 319 334 334 325
193 186 178 165 156 149 146 141 145 138 132 119 89 83 113 107 123 124 20 38 19 343 41 138 89 169 96 36 324 65 27 206 181 254 72 145 259 261 243 214 181 197 218 190 358 333 323 324 324 323 325 317 318 315
196 183 165 154 148 145 139 143 137 131 121 75 107 85 64 150 82 51 59 108 311 11 137 155 143 141 324 105 195 160 202 276 47 266 121 290 280 257 269 236 243 231 222 237 232 252 263 269 295 316 326 321 321 324
185 161 152 146 144 140 140 140 136 113 107 112 103 98 91 90 65 102 223 356 205 210 142 130 206 143 309 94 87 320 119 41 240 220 71 281 253 261 247 249 274 248 250 275 237 270 284 296 301 311 317 326 329 329
160 148 145 142 142 138 137 135 114 115 105 98 77 91 145 133 162 188 193 245 214 166 172 158 99 132 48 52 53 73 75 228 11 49 231 227 259 271 241 242 283 279 261 269 306 288 287 293 324 321 332 330 334 344
147 143 140 139 135 134 128 128 126 113 88 112 138 136 201 178 235 189 181 147 193 108 132 122 99 125 164 63 163 92 245 66 19 297 240 250 237 240 229 233 193 257 265 256 271 280 287 320 336 3 355 344 343 347
135 135 132 132 132 128 129 126 107 62 94 118 127 176 188 104 50 61 79 81 56 121 107 75 47 91 24 75 129 77 22 268 211 230 232 229 230 204 224 218 231 246 251 255 244 280 301 320 345 4 3 356 353 353
125 122 130 129 127 125 119 111 58 78 57 87 92 113 118 98 119 82 78 116 143 135 83 58 101 66 277 148 107 210 150 224 243 218 226 179 216 220 225 224 233 231 226 247 253 265 303 306 315 332 16 360 354 358
121 124 134 126 119 118 112 80 70 51 107 100 97 78 172 121 131 147 139 171 158 106 132 120 102 200 83 53 253 201 211 218 207 231 207 202 219 224 219 221 225 220 231 235 245 247 290 298 298 18 324 329 349 5
121 132 126 119 111 98 43 36 92 104 103 130 165 158 95 68 104 113 128 151 141 167 125 186 122 131 192 188 230 236 234 247 219 200 219 222 222 218 206 218 229 219 224 221 215 245 249 297 279 264 291 313 292 353
128 126 127 125 96 95 97 44 27 100 80 119 84 57 67 87 55 99 123 127 116 95 106 65 110 199 225 215 210 246 239 203 216 236 231 223 216 217 225 226 219 214 222 212 210 230 215 206 228 294 280 283 206 346
128 129 120 92 71 86 89 51 39 108 124 113 72 76 66 78 101 94 106 109 105 97 74 193 213 214 197 223 195 201 204 206 173 237 263 242 222 214 221 211 215 220 222 216 231 219 204 211 221 249 279 232 168 34
96 121 75 68 62 60 82 99 62 59 97 91 112 98 92 51 84 111 155 138 51 216 238 223 224 243 224 231 203 202 236 188 214 199 223 275 242 201 213 217 205 191 195 213 207 244 231 206 190 193 244 250 143 322
119 108 82 52 80 66 78 17 97 91 76 121 90 98 108 127 158 164 316 101 234 232 209 199 225 200 181 246 242 225 246 245 249 245 272 267 201 188 208 195 187 213 212 217 204 217 206 187 183 183 181 197 152 158
110 68 52 60 85 54 72 251 96 33 116 179 32 78 108 136 170 14 211 227 252 232 219 201 204 203 206 265 271 265 249 234 243 237 257 250 235 206 194 202 204 203 221 230 186 182 187 212 238 175 186 163 166 27
48 57 65 70 69 110 147 80 87 94 83 122 123 130 196 164 116 77 244 247 246 257 188 211 146 309 334 328 257 244 240 221 222 258 235 198 207 226 205 204 199 209 211 175 177 178 176 187 205 155 154 147 158 156
83 9 79 52 66 124 103 99 84 97 128 183 117 175 209 130 108 181 236 267 256 241 224 190 190 199 200 260 271 254 242 178 195 221 255 200 177 117 183 203 209 214 166 156 173 181 183 171 182 184 183 177 176 172
87 317 71 153 134 119 151 131 173 164 135 125 118 133 98 104 97 236 229 220 223 208 201 188 185 172 244 219 237 251 252 196 148 188 258 192 192 188 197 197 208 249 205 185 162 181 188 186 195 195 194 220 210 166
126 160 78 10 94 108 86 59 64 114 155 169 171 159 126 148 238 245 254 219 195 219 191 161 167 196 217 227 242 233 217 168 174 199 251 212 204 205 200 196 212 228 178 187 184 179 188 190 195 199 197 184 209 163
100 131 144 165 76 30 128 125 153 184 180 181 129 165 170 192 227 228 202 226 177 147 157 229 215 205 203 218 220 158 54 109 86 48 6 331 276 239 211 197 210 219 173 175 180 167 172 181 186 190 188 177 164 153
73 46 97 70 50 49 180 169 190 201 168 154 149 191 230 229 230 209 227 188 123 108 170 289 295 338 296 284 250 197 150 146 140 179 241 255 278 253 206 203 207 225 147 189 208 185 180 171 175 178 176 167 151 140
172 342 99 94 133 206 230 50 197 291 11 89 326 325 302 278 255 195 135 131 157 208 214 202 218 161 222 186 239 284 225 185 195 202 211 228 237 215 172 187 188 176 161 159 167 162 197 177 168 99 121 129 146 150
63 69 68 61 143 287 278 307 329 4 32 30 3 133 258 303 301 245 199 198 169 121 119 254 274 230 201 218 195 191 271 248 214 220 220 208 226 193 189 189 179 164 169 169 163 167 167 124 142 147 159 168 189 173
36 93 135 140 231 271 17 78 42 52 353 28 310 342 323 354 281 281 215 110 99 172 232 189 189 262 227 237 237 240 241 242 227 213 218 236 216 200 191 182 171 168 172 177 177 170 160 157 160 171 179 186 189 180
62 59 53 82 38 6 321 77 24 339 7 325 270 208 220 207 248 276 290 199 171 182 201 213 226 239 238 235 232 262 275 277 286 263 243 235 226 211 187 179 176 178 178 181 179 167 168 163 172 175 181 183 184 180